Aérodrome :
LOGIN :

S'inscrire | Disclaimer

   EN    FR    IT 

 










Légende :    VFR   VFR Marginal   IFR   IFR Intensif   IFR Très Intensif
Visi : 
Plafond : 
>= 8 km
>= 3000ft
5 à 8 km
1000 à 3000 ft
1500m à 5 km
500 à 1000 ft
800 à 1500m
200 à 500 ft
< 800m
< 200 ft
Symboles :   Orages  Brouillard  Fortes neiges  Fortes précipitations  Vent > 20 kt
SIGMETs :   Divers  Orages  Givrage  Turbulence  Onde Orograph.  Cendres Volcan.







- Altitude de l'aérodrome : 184 ft
- Code IATA : BRU


EBBR - Bruxelles

DERNIER METAR :
  • 212220Z 17005KT CAVOK 18/12 Q1009 NOSIG

METARs EXPIRÉS :
  • 212150Z 17005KT CAVOK 18/12 Q1009 NOSIG
  • 212120Z 18004KT CAVOK 18/12 Q1009 NOSIG
  • 212050Z 18005KT CAVOK 19/12 Q1009 NOSIG
  • 212020Z 18005KT CAVOK 20/11 Q1009 NOSIG
  • 211950Z 16005KT CAVOK 22/11 Q1009 NOSIG

TAF TAF EBBR
Valide du 21 à 18h jusqu'au 23 à 00h UTC


211700Z 2118/2224 14007KT 9999 FEW045
BECMG 2208/2210 21010KT
PROB30
TEMPO 2222/2224 4500 SHRA
Pas de NOTAMs connus pour ce terrain.



MET'MAP, la Météo Aéronautique d'un coup d'oeil ! - Copyright ORBIFLY Décembre 2007 - Disclaimer

ORBIFLY MET'MAP TEAM :

Programmation & Développement : Alexandra Zaïnal
Conception & Développement : Baudouin d'Aumeries
Co-Programmation & Développement : Marc-Olivier Méhu
Soutien technique & logistique : Manuel Goepfert

Contact : metmap@orbifly.com




SOURCES & CREDITS :

   NOAA